Temp
81 82 78 72 62 62 59 66 74 69 70 75 81 77 68 70 68 57 73 77 77 76 78 81 82 83 83 83 83 83 83 84 83 83 83 83 84 84 84 84 84 84 84 84 84 84 83 83 82
82 83 77 69 60 57 59 69 67 73 75 78 78 76 71 66 74 69 70 78 78 78 77 79 82 83 83 83 83 83 84 83 83 83 83 84 84 84 84 84 84 84 84 84 84 84 83 83 83
84 84 69 64 60 57 59 70 72 75 79 78 75 78 73 67 73 73 77 78 78 78 78 80 82 83 83 83 83 83 83 83 83 83 84 84 84 84 84 84 84 84 84 84 84 84 83 83 83
82 75 71 64 67 73 71 72 75 78 80 80 78 69 75 80 78 79 80 81 78 78 80 82 83 83 83 83 83 83 83 83 84 84 84 84 84 84 84 84 84 84 84 84 84 84 84 83 83
76 70 62 65 69 77 78 78 81 74 75 75 76 68 70 79 82 80 80 81 77 77 78 80 82 83 83 83 83 83 83 83 84 84 84 84 84 84 84 84 84 84 84 84 84 84 84 84 83
66 67 59 60 70 75 79 83 80 77 77 76 73 71 68 80 79 81 80 78 78 77 78 80 82 83 83 83 84 83 84 84 84 84 84 84 84 84 84 84 84 84 84 83 83 84 84 84 84
64 60 61 66 72 75 77 82 75 74 74 74 78 67 70 76 81 80 79 78 78 79 78 78 80 82 84 84 84 84 84 84 84 84 84 84 84 84 84 84 84 84 84 84 83 83 83 84 84
66 64 61 66 68 70 77 80 81 77 75 83 82 66 65 76 82 80 79 77 77 78 77 76 76 77 78 80 83 83 84 84 84 84 84 84 84 84 84 82 83 84 84 84 84 84 84 83 83
73 61 60 69 71 74 84 77 83 85 78 80 83 77 78 83 82 78 76 75 75 77 76 75 75 75 76 77 82 82 84 84 84 84 85 83 75 78 81 82 83 85 85 85 85 84 84 84 84
66 59 67 81 80 78 83 80 78 77 76 77 78 82 83 82 79 76 74 72 73 74 75 76 74 75 76 83 77 76 80 78 77 78 78 75 75 75 81 82 84 85 85 85 85 84 84 84 79
66 62 79 85 85 86 83 81 83 76 71 76 75 78 79 79 79 77 76 75 75 76 77 75 75 75 76 78 74 74 75 76 76 76 76 75 77 75 76 76 77 78 81 81 83 83 82 80 79
64 73 80 84 87 87 84 84 79 79 77 83 82 80 81 79 80 78 78 77 76 76 78 76 77 76 75 75 74 74 75 75 75 76 76 74 74 74 75 75 77 77 78 79 78 78 79 79 80
67 81 84 85 87 84 85 80 79 78 83 85 85 82 80 82 80 82 81 80 78 77 78 77 79 77 77 74 74 75 74 75 76 76 77 77 76 75 76 77 77 78 78 78 79 79 80 80 81
77 82 81 82 83 83 77 79 79 79 84 83 83 81 81 81 81 84 81 79 79 80 79 80 80 78 77 77 77 77 77 77 76 76 78 79 77 77 76 76 77 78 79 80 78 79 79 80 81
83 76 77 78 80 78 79 73 73 80 83 80 79 81 81 82 83 84 84 82 82 82 82 80 80 79 80 77 77 79 80 81 77 77 78 79 77 77 77 76 77 78 78 79 80 80 79 78 82
76 70 62 74 77 79 75 62 75 81 80 77 79 81 82 80 81 84 85 84 83 82 80 82 85 80 77 77 77 78 78 78 79 77 77 80 79 78 77 76 77 78 78 78 78 78 78 78 79
69 60 64 71 80 77 73 65 78 81 80 76 78 80 81 78 80 81 84 84 83 82 80 80 79 77 77 77 76 77 78 77 78 77 77 79 80 80 76 77 77 77 77 79 78 78 76 76 77
64 62 67 66 75 76 70 71 77 79 79 77 78 79 79 79 81 80 84 84 83 82 81 81 79 77 76 76 75 76 76 80 79 77 77 78 78 79 77 77 77 76 77 78 77 77 77 77 77
77 72 70 72 76 71 71 72 76 78 78 77 77 78 78 79 81 81 84 83 83 82 81 77 77 74 75 73 72 73 74 75 77 76 78 78 78 78 77 77 77 76 76 78 78 77 76 77 77
78 69 67 73 75 69 69 70 78 78 78 79 79 79 80 80 80 81 81 81 82 80 79 76 77 74 76 75 73 74 74 75 77 76 78 78 78 78 78 77 77 75 75 76 76 76 75 75 77
65 64 66 68 73 72 69 64 72 78 81 82 82 79 80 80 80 80 81 79 80 80 77 76 76 75 75 75 74 74 74 74 74 73 74 78 79 78 77 78 77 76 75 75 75 75 74 74 75
56 71 73 71 63 57 67 52 62 73 76 79 75 72 73 78 82 80 79 77 80 80 81 77 77 76 75 75 74 73 72 70 73 74 75 78 79 79 78 77 77 76 75 74 75 77 75 74 73
66 73 70 68 59 55 58 55 62 72 70 68 69 69 71 71 76 76 80 78 79 83 81 78 77 77 78 77 77 75 71 72 75 74 75 77 79 79 81 78 76 76 75 75 75 75 75 75 74
76 67 62 57 53 47 53 57 55 65 64 66 69 71 71 72 74 74 75 78 76 80 82 79 76 76 77 77 76 75 74 75 74 74 73 76 78 79 78 78 76 76 76 75 75 75 75 74 73
67 53 45 47 46 47 51 55 57 68 71 72 70 69 71 71 73 71 72 74 75 75 76 79 78 77 78 78 77 77 75 77 77 74 77 75 79 76 78 76 75 74 76 76 75 74 75 75 74
59 54 46 41 43 49 59 51 59 68 71 71 74 73 72 71 73 75 77 73 73 74 74 74 75 75 76 77 78 77 80 78 78 78 78 77 79 81 81 79 79 78 76 78 75 73 73 74 74
60 54 57 50 43 47 51 56 66 69 70 73 74 73 71 71 71 71 73 73 75 74 74 74 74 73 74 77 77 79 79 81 80 79 80 79 78 81 80 80 80 79 78 78 78 75 74 74 73
61 62 53 47 41 40 50 52 54 59 64 71 71 71 70 76 78 78 76 75 75 75 74 72 72 72 73 74 75 78 81 81 81 80 79 79 80 80 81 80 80 80 79 79 78 79 76 74 75
60 55 52 50 45 42 41 48 56 56 59 62 69 73 73 74 75 74 74 75 75 75 72 72 71 71 70 71 71 74 78 81 81 81 81 80 81 79 80 80 80 79 79 79 78 80 79 75 76
61 55 51 46 45 44 47 47 67 63 64 65 64 68 68 68 67 69 69 69 68 69 69 69 70 68 69 70 70 72 75 81 82 80 82 82 80 81 80 77 80 79 79 80 79 78 80 77 77
MSLP
1010.76 1010.75 1011.62 1012.19 1012.32 1011.42 1011.14 1010.62 1009.86 1010.09 1009.81 1009.49 1009.52 1010.04 1011.43 1011.92 1012.60 1014.90 1015.00 1015.38 1015.71 1016.17 1016.29 1016.29 1016.44 1016.58 1016.69 1016.73 1016.76 1016.70 1016.76 1016.91 1016.96 1016.90 1017.05 1017.10 1017.10 1017.13 1017.12 1017.13 1017.12 1017.14 1017.18 1017.19 1017.24 1017.31 1017.42 1017.42 1017.46
1009.32 1010.04 1010.25 1010.55 1010.78 1010.59 1011.16 1010.47 1010.10 1009.62 1009.53 1009.39 1009.91 1010.61 1011.09 1012.81 1013.14 1014.59 1015.27 1015.27 1015.47 1015.92 1016.20 1016.30 1016.46 1016.67 1016.85 1016.93 1016.90 1017.00 1017.01 1017.09 1017.23 1017.20 1017.39 1017.37 1017.49 1017.46 1017.43 1017.44 1017.41 1017.39 1017.38 1017.50 1017.58 1017.57 1017.64 1017.67 1017.73
1009.29 1009.13 1009.98 1010.04 1009.85 1009.54 1010.22 1009.43 1009.56 1009.77 1009.48 1009.33 1010.18 1010.94 1011.87 1013.22 1013.92 1014.38 1014.71 1015.31 1015.61 1015.81 1016.07 1016.24 1016.46 1016.71 1016.90 1017.02 1017.05 1017.16 1017.30 1017.42 1017.45 1017.60 1017.72 1017.67 1017.76 1017.72 1017.69 1017.63 1017.60 1017.66 1017.69 1017.64 1017.72 1017.82 1017.86 1017.86 1017.96
1008.98 1009.61 1009.81 1009.46 1008.82 1008.20 1008.86 1009.59 1009.42 1009.52 1010.06 1010.12 1010.31 1011.64 1012.89 1013.08 1013.51 1014.06 1014.91 1015.17 1015.67 1015.87 1016.07 1016.20 1016.46 1016.70 1016.96 1017.08 1017.13 1017.26 1017.44 1017.61 1017.66 1017.77 1017.85 1017.84 1017.95 1017.93 1017.88 1017.82 1017.82 1017.84 1017.82 1017.81 1017.83 1017.94 1017.93 1018.03 1018.23
1009.47 1009.63 1009.78 1008.89 1008.20 1007.90 1008.14 1008.77 1008.95 1009.45 1010.08 1010.53 1010.83 1012.56 1013.26 1013.75 1013.85 1014.61 1015.08 1015.46 1015.59 1015.96 1016.08 1016.26 1016.46 1016.75 1017.04 1017.19 1017.20 1017.40 1017.62 1017.80 1017.87 1018.03 1018.17 1018.23 1018.20 1018.12 1018.05 1018.01 1018.04 1018.04 1018.05 1018.01 1018.04 1018.09 1018.14 1018.27 1018.42
1009.63 1010.03 1009.86 1009.18 1008.23 1008.20 1007.81 1008.04 1008.68 1009.26 1010.32 1011.05 1011.57 1012.50 1013.83 1014.00 1014.30 1014.78 1015.23 1015.60 1015.72 1016.08 1016.25 1016.32 1016.55 1016.92 1017.22 1017.38 1017.37 1017.48 1017.71 1017.93 1017.94 1018.19 1018.36 1018.44 1018.33 1018.22 1018.22 1018.27 1018.31 1018.26 1018.21 1018.21 1018.24 1018.28 1018.37 1018.52 1018.47
1010.50 1010.59 1009.91 1008.49 1007.96 1007.68 1008.09 1008.40 1008.29 1009.51 1010.31 1011.15 1011.34 1012.66 1014.23 1014.44 1014.53 1015.11 1015.52 1015.86 1016.00 1016.21 1016.41 1016.61 1016.85 1017.16 1017.30 1017.47 1017.60 1017.69 1017.83 1017.95 1018.10 1018.28 1018.55 1018.54 1018.36 1018.29 1018.47 1018.48 1018.47 1018.37 1018.40 1018.36 1018.46 1018.52 1018.61 1018.64 1018.67
1010.84 1010.87 1009.72 1008.23 1007.84 1007.53 1007.81 1008.39 1008.52 1008.92 1010.27 1010.90 1011.33 1012.80 1013.77 1014.14 1014.66 1015.30 1015.91 1016.25 1016.40 1016.46 1016.64 1016.94 1017.14 1017.34 1017.41 1017.62 1017.82 1017.92 1018.06 1018.08 1018.25 1018.44 1018.56 1018.59 1018.34 1018.45 1018.62 1018.65 1018.56 1018.60 1018.45 1018.52 1018.66 1018.71 1018.74 1018.78 1018.82
1011.16 1010.74 1009.33 1007.73 1007.24 1007.40 1007.30 1007.96 1009.23 1009.20 1010.06 1010.76 1010.81 1011.73 1013.02 1013.89 1014.72 1015.58 1016.26 1016.68 1016.77 1016.98 1017.10 1017.18 1017.42 1017.56 1017.56 1017.68 1017.85 1018.08 1018.22 1018.33 1018.42 1018.49 1018.61 1018.60 1018.54 1018.68 1018.75 1018.74 1018.69 1018.57 1018.58 1018.41 1018.65 1018.73 1018.73 1018.73 1018.73
1011.34 1010.48 1008.48 1006.51 1006.45 1006.57 1006.93 1007.46 1008.75 1009.67 1010.47 1011.02 1011.44 1012.29 1013.24 1013.98 1014.81 1015.52 1016.17 1016.72 1016.99 1017.19 1017.31 1017.33 1017.56 1017.70 1017.79 1017.75 1018.12 1018.28 1018.39 1018.51 1018.64 1018.71 1018.77 1018.75 1018.74 1018.82 1018.69 1018.67 1018.57 1018.75 1018.38 1018.65 1018.48 1018.50 1018.59 1018.84 1018.83
1011.11 1009.80 1007.40 1006.12 1005.87 1005.99 1006.59 1007.51 1008.34 1009.44 1010.71 1010.49 1011.04 1012.16 1013.06 1013.76 1014.35 1014.80 1015.53 1015.87 1016.24 1016.79 1017.21 1017.44 1017.57 1017.73 1017.91 1017.94 1018.41 1018.56 1018.59 1018.63 1018.70 1018.81 1018.82 1018.85 1018.81 1018.81 1018.80 1018.91 1018.88 1018.60 1018.66 1018.42 1018.35 1018.20 1018.33 1018.52 1018.78
1010.80 1008.70 1007.27 1006.37 1006.08 1006.23 1006.64 1007.47 1008.78 1008.83 1009.98 1010.46 1011.10 1011.93 1012.72 1013.47 1013.90 1014.46 1015.00 1015.84 1016.38 1016.73 1017.00 1017.44 1017.48 1017.68 1017.97 1018.12 1018.52 1018.66 1018.74 1018.73 1018.74 1018.74 1018.82 1018.97 1018.89 1018.90 1019.00 1018.86 1018.57 1018.34 1018.10 1018.25 1018.14 1018.16 1017.97 1018.09 1018.58
1009.93 1007.24 1006.74 1006.19 1006.31 1006.62 1006.91 1007.57 1008.33 1009.30 1009.99 1010.77 1011.18 1012.16 1012.76 1012.94 1013.50 1013.84 1014.30 1015.23 1015.98 1016.45 1016.89 1017.33 1017.48 1017.66 1017.91 1018.21 1018.50 1018.68 1018.81 1018.78 1018.61 1018.68 1018.75 1018.76 1018.75 1018.88 1019.01 1018.73 1018.64 1018.37 1018.10 1018.18 1018.15 1018.27 1018.08 1017.91 1017.85
1007.85 1007.14 1007.08 1007.05 1006.90 1007.32 1007.75 1008.50 1008.61 1009.95 1010.24 1010.84 1011.19 1011.83 1012.46 1012.81 1013.18 1013.72 1014.39 1015.17 1015.59 1016.12 1016.50 1016.94 1017.31 1017.51 1017.90 1018.15 1018.32 1018.38 1018.51 1018.55 1018.69 1018.73 1018.65 1018.69 1018.85 1018.75 1018.71 1018.72 1018.69 1018.40 1018.17 1017.97 1017.99 1017.87 1017.70 1017.53 1017.59
1007.03 1007.43 1007.76 1007.75 1007.50 1008.00 1008.21 1009.31 1009.43 1009.84 1010.33 1010.95 1011.42 1011.70 1012.00 1012.42 1012.90 1013.16 1013.55 1014.30 1014.83 1015.44 1016.15 1016.53 1016.92 1017.19 1017.48 1017.90 1018.13 1018.26 1018.28 1018.38 1018.59 1018.76 1018.58 1018.54 1018.62 1018.67 1018.63 1018.67 1018.52 1018.20 1018.16 1018.20 1018.03 1017.89 1017.63 1017.58 1017.21
1007.33 1007.96 1008.37 1008.04 1008.09 1008.18 1008.31 1009.57 1009.83 1009.92 1010.22 1010.83 1011.27 1011.59 1011.93 1012.20 1012.44 1012.77 1013.26 1013.98 1014.67 1015.29 1015.86 1016.35 1016.78 1017.16 1017.44 1017.51 1017.79 1017.95 1018.22 1018.30 1018.36 1018.61 1018.59 1018.48 1018.52 1018.60 1018.68 1018.84 1018.49 1018.22 1018.36 1018.21 1018.09 1018.13 1017.97 1017.81 1017.80
1008.03 1008.34 1008.40 1008.15 1008.01 1008.27 1008.76 1009.60 1009.83 1009.96 1010.13 1010.65 1011.11 1011.31 1011.53 1012.00 1012.33 1012.56 1013.06 1013.72 1014.38 1014.96 1015.64 1016.28 1016.58 1017.10 1017.33 1017.45 1017.64 1017.76 1018.19 1018.29 1018.40 1018.56 1018.54 1018.32 1018.35 1018.43 1018.69 1018.72 1018.51 1018.27 1018.53 1018.09 1018.15 1018.20 1018.21 1018.24 1017.96
1007.48 1008.08 1007.89 1007.79 1007.71 1008.26 1008.72 1008.58 1009.01 1009.45 1009.83 1010.08 1010.63 1011.09 1011.41 1011.71 1012.03 1012.42 1012.85 1013.55 1014.21 1014.97 1015.60 1016.02 1016.51 1017.02 1017.32 1017.45 1017.73 1017.80 1018.24 1018.20 1018.32 1018.49 1018.43 1018.33 1018.29 1018.35 1018.61 1018.63 1018.60 1018.59 1018.58 1018.42 1018.42 1018.39 1018.21 1018.01 1017.89
1006.38 1006.84 1006.94 1007.00 1007.02 1007.84 1008.13 1008.19 1008.35 1008.82 1009.54 1009.82 1010.33 1010.64 1011.07 1011.51 1011.79 1012.17 1012.71 1013.36 1014.19 1014.88 1015.54 1016.16 1016.58 1016.98 1017.44 1017.79 1018.08 1018.13 1018.20 1018.30 1018.47 1018.35 1018.33 1018.27 1018.24 1018.30 1018.45 1018.55 1018.56 1018.65 1018.92 1018.44 1018.34 1018.36 1018.23 1018.17 1017.93
1005.61 1006.15 1006.74 1006.70 1006.80 1007.80 1007.89 1008.07 1007.98 1008.20 1008.36 1008.59 1009.30 1010.21 1010.65 1011.20 1011.76 1012.26 1012.62 1013.24 1013.86 1014.62 1015.33 1015.98 1016.40 1016.81 1017.12 1017.41 1017.64 1017.81 1018.04 1018.09 1018.15 1018.14 1018.12 1018.23 1018.19 1018.21 1018.39 1018.39 1018.57 1018.77 1018.89 1018.74 1018.50 1018.48 1018.56 1018.43 1018.09
1006.35 1006.73 1006.88 1006.90 1007.12 1007.53 1007.63 1007.94 1007.93 1007.91 1008.14 1008.75 1009.29 1010.08 1010.62 1011.14 1011.77 1012.32 1012.86 1013.38 1013.88 1014.38 1014.99 1015.50 1015.94 1016.44 1016.89 1017.23 1017.57 1017.87 1018.02 1018.12 1018.13 1018.26 1018.19 1018.03 1018.06 1017.98 1018.12 1018.10 1018.18 1018.47 1018.63 1018.67 1018.53 1018.52 1018.66 1018.65 1018.28
1006.76 1006.80 1007.11 1007.41 1007.99 1008.24 1008.01 1008.86 1008.12 1007.60 1007.84 1008.60 1009.73 1010.67 1011.53 1011.70 1012.07 1012.72 1013.32 1013.81 1013.99 1014.27 1014.51 1015.02 1015.41 1015.93 1016.45 1016.89 1017.36 1017.86 1018.22 1018.37 1018.21 1018.13 1017.94 1017.82 1017.84 1017.77 1017.77 1017.79 1017.81 1017.99 1018.20 1018.46 1018.40 1018.41 1018.48 1018.62 1018.61
1007.07 1006.92 1007.29 1008.07 1009.02 1009.35 1009.09 1009.17 1007.63 1007.45 1008.49 1009.22 1010.38 1011.39 1012.22 1012.60 1013.04 1013.30 1013.00 1013.41 1013.87 1014.10 1014.31 1014.72 1015.23 1015.72 1016.09 1016.44 1016.75 1017.32 1017.83 1018.09 1017.90 1017.95 1017.86 1017.76 1017.51 1017.52 1017.36 1017.40 1017.47 1017.64 1017.68 1018.03 1018.11 1018.12 1018.18 1018.26 1018.39
1006.74 1007.57 1008.54 1009.26 1010.20 1011.20 1009.47 1009.65 1009.16 1008.25 1008.32 1009.87 1010.80 1011.53 1012.45 1012.93 1013.09 1014.00 1014.07 1013.51 1013.72 1014.23 1014.48 1014.72 1014.97 1015.23 1015.68 1016.03 1016.22 1016.47 1016.86 1017.38 1017.80 1017.75 1017.66 1017.48 1017.52 1017.46 1017.14 1017.05 1017.18 1017.17 1017.19 1017.49 1017.65 1017.78 1017.80 1017.90 1018.12
1007.53 1009.43 1010.64 1011.75 1012.31 1011.85 1010.43 1010.05 1009.95 1008.67 1008.93 1009.77 1011.18 1012.12 1012.43 1013.01 1013.20 1012.92 1014.20 1014.62 1014.54 1014.72 1014.85 1015.01 1015.20 1015.52 1015.82 1015.99 1016.24 1016.42 1016.45 1016.51 1016.65 1016.93 1017.01 1016.99 1016.85 1016.97 1016.90 1016.79 1016.96 1017.07 1016.77 1016.79 1016.98 1017.34 1017.46 1017.49 1017.70
1008.54 1009.99 1011.55 1012.63 1013.38 1012.36 1011.08 1011.77 1011.63 1010.59 1010.34 1010.57 1010.99 1012.06 1012.69 1013.11 1013.24 1013.51 1013.59 1014.96 1015.16 1015.06 1015.01 1015.14 1015.27 1015.56 1015.50 1015.72 1015.96 1015.98 1015.99 1016.22 1016.18 1016.03 1015.94 1016.08 1016.14 1016.04 1016.00 1016.03 1016.00 1016.16 1016.29 1016.24 1016.46 1016.89 1017.03 1017.08 1017.10
1008.92 1010.12 1011.08 1012.39 1013.40 1013.57 1013.60 1013.54 1012.20 1011.80 1011.72 1011.84 1012.11 1012.68 1013.30 1013.50 1013.97 1014.03 1014.33 1015.13 1015.42 1015.33 1015.39 1015.21 1015.50 1015.86 1015.39 1015.48 1015.70 1015.68 1015.67 1015.67 1015.55 1015.35 1015.29 1015.31 1015.22 1015.34 1015.37 1015.37 1015.54 1015.64 1015.65 1015.76 1016.10 1016.31 1016.45 1016.58 1016.66
1008.87 1010.00 1011.59 1013.15 1014.41 1015.14 1015.21 1014.60 1014.76 1014.36 1013.80 1013.55 1013.64 1013.83 1013.97 1013.83 1013.84 1013.94 1014.11 1014.58 1014.95 1015.30 1015.96 1016.09 1015.88 1015.77 1015.55 1015.50 1015.62 1015.64 1014.93 1014.72 1014.89 1015.12 1014.89 1014.52 1014.45 1014.49 1014.62 1014.82 1014.96 1015.05 1015.18 1015.34 1015.54 1015.70 1015.81 1016.02 1016.03
1009.83 1010.81 1012.29 1013.82 1014.90 1015.58 1016.31 1016.91 1016.17 1015.62 1014.94 1014.62 1014.62 1014.57 1014.62 1014.59 1015.08 1015.07 1015.16 1015.35 1015.45 1015.96 1016.27 1016.23 1015.88 1015.77 1015.74 1015.62 1015.45 1014.86 1013.95 1013.50 1013.81 1014.13 1014.11 1014.06 1013.83 1013.75 1013.84 1013.93 1014.03 1014.27 1014.45 1014.67 1014.91 1014.96 1015.09 1015.37 1015.38
1010.32 1011.36 1012.60 1014.52 1015.89 1016.43 1016.76 1017.72 1016.97 1016.23 1015.86 1015.62 1015.87 1015.95 1016.08 1016.09 1016.05 1016.03 1016.14 1016.29 1016.45 1016.46 1016.24 1015.86 1015.77 1015.73 1015.60 1015.44 1015.15 1014.44 1013.67 1012.67 1012.68 1012.90 1012.93 1013.13 1013.14 1012.97 1012.98 1013.07 1013.14 1013.20 1013.39 1013.65 1013.95 1014.12 1014.24 1014.57 1014.69
Wind_Speed
10 10 8 5 2 4 6 4 10 8 2 2 4 8 11 13 4 8 7 10 12 9 7 11 11 13 13 13 14 15 15 15 15 16 16 16 15 15 14 13 13 12 11 11 12 12 11 10 10
6 7 3 2 3 8 3 14 12 9 11 15 13 8 12 8 9 12 7 11 12 10 5 8 13 13 13 13 13 14 15 15 16 16 14 14 13 13 13 12 12 12 12 10 9 10 10 9 8
3 3 2 2 2 4 8 15 16 13 12 10 7 7 5 8 13 13 11 13 11 9 8 10 15 14 15 14 13 14 15 15 16 15 14 14 13 12 12 11 12 11 10 11 9 9 7 7 7
2 3 3 3 9 7 16 14 21 17 10 11 13 10 7 3 12 9 17 15 12 10 9 13 16 17 16 15 15 15 15 14 14 14 14 14 13 12 11 10 9 9 10 10 9 8 7 6 6
2 2 1 1 3 12 20 20 18 16 9 15 12 11 10 5 15 19 15 14 13 8 7 11 16 17 16 16 16 16 15 14 13 13 13 12 11 10 10 9 9 9 9 9 8 7 6 5 5
4 2 3 5 6 18 16 19 18 18 16 17 19 14 3 16 20 16 16 13 11 11 8 10 18 18 16 15 16 16 15 14 14 12 11 10 10 8 8 7 8 8 8 7 6 4 3 2 3
6 3 1 3 9 14 18 15 16 20 20 10 16 11 10 17 16 16 14 12 12 11 10 8 11 15 16 13 15 14 14 13 12 11 9 9 8 7 6 5 5 6 5 5 3 1 1 0 1
4 3 2 2 9 6 17 12 19 21 10 16 18 8 14 15 18 15 13 11 10 11 9 7 6 6 7 7 13 12 11 11 10 10 9 8 8 7 6 3 2 3 2 1 2 3 3 4 4
2 3 1 5 6 6 18 14 11 12 20 13 2 18 21 21 17 15 12 9 8 8 9 6 6 5 5 6 8 10 11 10 10 9 9 7 3 3 4 4 5 4 3 5 6 7 7 6 4
2 2 4 6 10 9 16 21 14 12 19 13 19 18 23 22 20 16 14 11 10 11 9 8 7 6 5 7 5 5 5 3 4 3 3 3 3 3 5 6 8 5 6 7 10 10 10 7 3
0 4 4 10 10 14 14 20 16 21 16 23 22 26 24 23 21 19 16 16 14 13 9 8 8 6 6 5 3 2 2 2 3 5 4 4 3 3 3 2 2 3 5 4 6 7 5 5 4
5 12 5 9 8 6 10 14 17 18 13 21 20 22 22 22 18 17 17 15 13 13 12 9 9 8 6 4 4 4 3 3 3 4 5 3 3 3 3 3 3 4 2 3 4 3 5 5 4
7 2 9 7 13 12 13 9 11 14 20 18 18 22 19 20 18 16 18 16 15 14 12 12 10 9 6 6 4 4 4 3 4 4 4 4 3 4 4 4 3 3 3 2 3 3 1 3 3
6 8 7 5 7 8 11 6 11 16 19 17 17 18 18 17 16 14 17 17 17 14 15 14 12 8 7 7 7 5 4 5 3 3 4 4 4 3 2 1 3 3 2 2 4 4 5 5 1
8 5 4 1 2 5 8 7 12 19 17 15 10 13 12 14 14 16 17 17 19 16 16 16 13 9 12 9 6 7 7 5 4 4 4 3 4 2 2 2 4 3 2 5 4 5 5 4 4
6 6 2 4 3 1 6 4 13 19 19 15 11 12 10 7 11 11 14 15 18 15 15 15 12 10 8 8 6 5 3 5 4 4 4 5 4 4 0 2 4 5 2 1 3 2 3 2 3
4 1 4 2 7 3 3 6 12 15 18 17 14 13 11 8 7 9 10 15 15 15 12 11 8 8 7 6 4 5 5 4 4 4 4 6 5 3 2 2 5 5 2 3 2 2 1 2 1
6 5 5 6 9 7 4 8 18 16 18 19 17 15 11 10 12 10 14 16 15 14 13 11 8 8 7 5 3 3 2 4 4 4 4 6 5 4 3 3 5 3 3 2 1 3 1 1 2
9 6 7 8 8 7 12 7 19 18 15 17 16 15 13 12 10 9 14 16 15 15 13 9 10 7 5 2 2 1 2 3 3 4 6 6 6 5 5 3 4 2 5 2 3 1 3 3 3
10 3 5 2 5 7 7 11 17 20 21 21 19 16 15 13 14 11 13 16 19 17 13 11 11 8 6 4 3 3 2 3 3 4 5 6 6 6 5 5 5 1 3 5 4 2 2 2 1
5 5 4 5 3 4 3 3 16 17 19 16 16 13 10 15 17 14 13 14 15 16 12 12 11 10 6 6 2 1 2 2 2 2 3 6 8 7 7 7 5 5 3 4 5 3 2 2 2
5 4 3 5 5 4 5 5 8 18 19 18 11 7 1 7 12 6 6 7 14 14 13 12 12 12 8 8 5 5 4 4 3 3 4 6 9 9 7 7 7 6 4 4 4 3 3 2 3
4 2 4 3 3 4 1 3 8 15 12 5 14 13 13 12 11 6 10 9 8 14 13 12 11 12 11 11 9 7 5 4 4 3 5 7 8 9 11 8 7 6 4 5 5 5 4 3 3
2 4 8 6 4 4 5 7 6 9 9 10 14 18 16 13 14 6 11 1 7 7 9 7 10 12 11 12 11 13 11 9 6 6 4 5 6 8 8 7 6 7 6 6 6 6 4 4 3
10 8 5 5 5 7 3 5 6 7 16 21 19 12 15 12 13 15 15 1 4 7 6 4 5 7 8 10 10 11 11 12 13 11 8 7 8 6 9 7 7 5 7 7 6 6 6 5 4
3 7 7 2 2 5 6 6 5 4 11 7 9 12 13 12 12 14 12 6 4 6 7 6 1 6 6 8 12 10 13 9 9 11 9 7 8 10 12 11 10 10 8 8 6 4 5 5 5
3 3 5 4 2 5 3 5 15 13 15 14 15 12 7 6 6 5 2 3 7 6 4 5 3 5 7 8 10 12 11 14 13 14 12 9 8 9 11 12 12 12 11 10 9 6 7 6 6
5 2 5 5 2 4 3 4 7 5 10 16 17 15 9 12 13 10 8 6 7 8 4 1 3 3 5 7 4 9 15 15 16 13 14 13 11 11 11 12 13 13 13 12 11 10 8 8 7
5 4 6 6 4 5 4 4 2 2 1 7 9 11 13 14 12 12 12 10 9 6 4 4 3 4 5 4 6 12 16 18 15 16 16 15 13 11 13 13 15 14 13 13 12 13 12 10 10
4 3 5 7 4 5 7 1 6 9 11 13 14 14 12 10 7 7 8 8 7 6 3 5 4 4 4 4 6 9 14 14 16 17 18 16 15 13 13 12 14 14 15 15 14 15 14 13 13
Wind_Direction
172 186 158 168 190 102 127 85 113 131 83 328 93 115 97 35 106 139 135 148 127 149 170 156 147 130 124 119 110 103 103 104 105 105 105 108 106 105 103 104 106 107 109 104 103 97 102 106 108
182 166 215 153 88 93 49 116 88 118 118 100 70 75 49 72 63 115 112 148 145 148 161 155 147 139 130 125 114 109 108 108 106 105 108 107 106 106 106 105 109 105 109 108 100 106 110 117 110
196 227 117 99 152 109 126 124 123 114 114 102 108 59 67 103 119 144 135 150 147 141 141 153 147 145 137 130 119 110 110 111 112 111 112 110 110 109 112 109 109 116 112 110 108 109 117 122 117
327 11 357 8 94 160 123 130 140 129 96 103 106 68 71 114 137 136 142 150 135 137 144 149 151 146 142 132 126 114 113 117 119 120 117 113 114 116 116 117 121 121 115 107 107 112 128 131 122
6 54 94 244 87 92 121 144 131 124 81 99 116 113 108 103 117 139 149 137 132 131 140 150 150 145 139 134 128 122 121 123 122 121 116 119 122 124 130 126 115 123 111 104 104 118 134 131 117
66 122 54 102 13 105 127 137 122 101 120 114 108 116 87 132 141 142 136 135 131 129 134 142 146 140 134 131 126 129 130 131 124 126 125 131 133 144 143 129 112 104 103 102 97 101 104 91 69
100 64 169 142 120 144 136 131 120 121 127 132 126 108 135 144 142 135 132 131 131 131 126 124 137 144 139 140 135 134 133 130 133 129 139 144 153 163 161 134 119 104 104 95 89 52 351 6 269
84 94 319 112 113 69 138 137 137 138 121 138 133 151 160 159 140 134 134 134 135 130 129 130 134 136 140 140 138 129 135 135 139 145 149 163 180 187 176 154 166 144 111 132 192 214 253 265 269
8 53 303 141 110 136 130 124 144 123 135 157 223 141 152 148 138 130 133 132 130 138 145 139 131 142 157 141 146 139 147 149 156 150 158 174 216 221 205 194 220 211 191 263 254 252 249 242 225
347 86 249 174 131 136 131 136 129 134 148 121 120 127 146 142 144 146 150 155 161 157 160 152 151 158 155 162 136 148 165 160 154 165 175 203 233 243 233 232 235 207 266 261 269 259 252 248 250
210 214 282 121 139 149 144 139 139 142 148 153 147 148 150 153 156 159 162 166 170 163 162 166 159 164 167 160 151 166 168 174 183 183 194 222 258 272 285 298 286 304 234 258 248 259 244 222 198
259 235 266 60 89 135 153 122 155 152 165 157 149 151 150 164 163 162 168 166 163 167 170 171 168 171 189 149 164 172 186 196 216 210 198 205 246 252 250 263 291 294 287 263 199 215 242 237 190
237 172 73 66 73 67 83 125 134 132 144 155 153 149 164 168 167 182 170 165 164 167 166 179 179 185 179 155 159 181 202 220 214 200 194 173 196 235 233 255 278 296 303 207 159 172 220 262 260
178 82 84 41 84 82 91 117 111 139 149 153 158 154 172 173 179 168 165 169 170 170 171 178 186 188 156 177 188 195 185 212 205 213 180 173 204 225 207 233 258 290 294 335 11 349 329 315 358
97 64 34 255 352 95 102 77 140 148 150 155 152 170 173 177 174 174 174 166 173 173 174 176 177 180 172 181 191 185 193 190 192 208 215 144 169 201 156 331 306 278 329 27 354 320 308 313 304
62 74 91 250 122 341 93 167 156 155 152 163 170 183 187 197 176 169 165 160 167 164 169 177 178 175 167 167 172 166 169 184 191 191 203 177 174 184 63 1 297 295 37 340 319 323 25 33 31
325 150 214 175 193 145 115 147 172 169 163 168 182 190 192 183 173 162 152 155 159 163 166 172 156 166 165 162 159 150 168 171 207 198 202 198 203 208 159 275 297 306 333 325 344 304 117 232 267
207 206 188 208 184 189 172 212 170 179 176 177 183 193 196 174 181 159 149 154 157 162 170 163 160 168 167 162 169 141 150 197 179 208 203 201 206 195 192 254 288 336 288 360 357 295 281 313 310
178 231 182 208 191 146 200 195 180 180 186 183 189 190 186 177 183 156 149 153 155 164 163 168 165 176 157 143 159 157 207 159 193 211 222 214 212 195 197 241 279 328 278 217 276 271 17 326 11
31 92 187 156 150 161 191 217 191 181 194 189 185 187 182 167 163 167 155 152 167 169 173 166 179 168 173 162 165 154 187 229 171 213 215 215 219 206 199 216 242 212 278 294 284 283 336 291 352
28 62 2 169 158 253 56 322 181 201 195 192 191 182 180 169 168 172 163 160 163 171 169 170 172 172 172 175 122 59 23 330 317 193 224 216 220 220 197 205 217 220 230 253 243 253 181 271 310
50 289 85 52 71 213 98 264 211 199 197 188 166 134 154 172 168 149 145 156 169 177 176 169 170 171 174 172 168 177 185 227 237 218 215 210 219 227 213 206 206 218 215 240 249 230 206 173 262
182 285 322 140 89 342 162 73 272 185 185 136 126 111 96 86 81 99 154 151 190 178 179 174 171 175 179 182 183 190 206 230 249 225 223 222 217 221 224 210 208 205 216 228 240 248 207 208 201
154 43 30 40 76 11 259 132 290 183 150 120 117 119 107 82 70 5 311 341 165 181 179 175 174 185 186 190 190 194 195 211 234 247 220 211 225 229 225 220 209 215 210 215 221 236 228 215 237
62 49 356 15 10 226 50 58 261 118 123 132 125 125 125 145 194 170 224 133 68 110 98 160 183 205 210 206 209 216 214 215 221 225 221 210 214 221 231 216 220 218 219 219 215 220 228 225 208
92 133 144 174 212 269 357 16 344 66 104 104 100 126 145 178 198 206 222 174 120 95 85 65 52 221 220 223 235 232 228 226 232 230 222 207 219 219 218 220 220 221 216 220 211 208 223 228 231
313 40 187 121 350 66 6 13 31 43 58 72 93 109 125 148 161 177 205 151 136 106 96 24 112 337 273 233 238 238 239 240 237 235 228 223 207 218 223 221 219 223 220 219 220 220 219 215 222
112 198 37 9 55 72 322 56 125 43 92 93 92 94 84 86 82 73 87 85 91 88 94 298 76 36 10 27 8 286 248 236 239 243 239 231 227 212 215 217 223 225 225 222 218 229 229 221 230
10 16 52 109 97 137 99 351 334 270 219 113 103 104 112 112 111 101 92 87 84 110 181 203 68 29 6 338 294 314 264 232 230 236 238 238 231 214 214 215 218 222 222 222 221 227 230 224 234
112 118 108 108 305 44 103 321 358 71 56 70 62 64 60 55 43 93 121 130 135 141 98 57 38 10 320 300 304 317 336 250 235 233 235 234 235 232 217 212 215 217 218 219 218 221 225 224 231